Regional Weather Roundup
Issued by NWS

Home | Current Version | Previous Version | Graphics & Text | Print | Product List | Glossary On
Versions: 1 2 3 4 5 6 7 8 9 10 11 12 13 14 15 16 17 18 19 20 21 22 23 24 25 26 27 28
000
ASUS45 KCYS 180810
RWRWY

WYOMING REGIONAL WEATHER ROUNDUP
NATIONAL WEATHER SERVICE CHEYENNE WY
100 AM MST SAT NOV 18 2017

NOTE:  "FAIR" INDICATES FEW OR NO CLOUDS BELOW 12,000 FEET
WITH NO SIGNIFICANT WEATHER AND/OR OBSTRUCTIONS TO VISIBILITY.

WYZ001-180900-
YELLOWSTONE NATIONAL PARK

CITY           SKY/WX    TMP DP  RH WIND       PRES   REMARKS
LK YELLOWSTONE   N/A      1  -2  87 CALM      30.17R
W YELLOWSTONE  NOT AVBL

$$
WYZ002>013-054>058-071-098>099-180900-
NORTHERN WYOMING

CITY           SKY/WX    TMP DP  RH WIND       PRES   REMARKS
JACKSON        FAIR      16   8  71 SE6       30.20R WCI   7
CODY           FAIR      31  13  47 W17G35    30.08R WCI  19
GREYBULL       FAIR      25  19  78 SW3       30.10R
WORLAND        FAIR      23  20  88 S7        30.10R WCI  15
SHERIDAN       FAIR      30  17  58 W12       30.05R WCI  20
BUFFALO        FAIR      29   9  43 NW17      30.02R WCI  17
GILLETTE       FAIR      30  19  63 NW17      30.02R WCI  18
HULETT         CLOUDY    32  23  69 W9G16     29.99R WCI  24
NEWCASTLE      FAIR      28  23  80 NW12      29.99R WCI  18

$$
WYZ014>020-022>026-101>103-180900-
CENTRAL WYOMING

CITY           SKY/WX    TMP DP  RH WIND       PRES   REMARKS
BIG PINEY      FAIR       8   2  76 W5        30.19R WCI   0
PINEDALE       FAIR      10   5  79 NW5       30.17R WCI   2
DUBOIS         FAIR      19   5  53 W23       30.11R WCI   2
LANDER         FAIR      25   5  42 SW13      30.10R WCI  14
RIVERTON       FAIR      27   9  46 NW25G35   30.09R WCI  12
CASPER         FAIR      19  15  84 W6        30.07R WCI  11
DOUGLAS        FAIR      27  25  92 NW15      30.04R WCI  15

$$
WYZ021-027>030-104>119-180900-
SOUTHERN WYOMING

CITY           SKY/WX    TMP DP  RH WIND       PRES   REMARKS
EVANSTON       FAIR      14  12  92 SW10      30.28R WCI   1
FORT BRIDGER   FAIR      19  16  89 SW17      30.29R WCI   3
ROCK SPRINGS   FAIR      18  14  84 W21       30.20R WCI   1
DIXON          FAIR      17  13  88 SW5       30.23R WCI   9
RAWLINS        FAIR      21  17  84 W10       30.10R WCI  10
SARATOGA       CLOUDY    21  18  86 W17       30.12R WCI   7
LARAMIE        FAIR      20  16  84 NW14      30.02R WCI   7
CHEYENNE       MIX PCPN  28  20  71 NW16G24   30.01R WCI  16
TORRINGTON     FAIR      35  26  69 NW14      29.99R WCI  26
PINE BLUFFS    CLOUDY    30  27  86 NW20      29.99R WCI  18

$$




USA.gov is the U.S. government's official web portal to all federal, state and local government web resources and services.